Regional Weather Roundup
Issued by NWS Upton, NY

Home | Current Version | Previous Version | Text Only | Print | Product List | Glossary On
Versions: 1 2 3 4 5 6 7 8 9 10 11 12 13 14 15 16 17 18 19 20 21 22 23 24 25 26 27 28
000
ASUS41 KOKX 310304
RWROKX

REGIONAL WEATHER ROUNDUP
NATIONAL WEATHER SERVICE NEW YORK NY
1100 PM EDT SAT JUL 30 2016

NOTE: "FAIR" INDICATES FEW OR NO CLOUDS BELOW 12,000 FEET WITH NO
SIGNIFICANT WEATHER AND/OR OBSTRUCTIONS TO VISIBILITY.

NYZ071-072-176-178-NJZ106-104-310400-
NEW YORK CITY METRO AREA

CITY           SKY/WX    TMP DP  RH WIND       PRES   REMARKS
Central Park   CLOUDY    74  72  93 VRB3      30.06F FOG
LaGuardia APRT CLOUDY    77  73  87 E10       30.02F
Kennedy INTL   LGT RAIN  76  73  91 E6        30.04F
Newark/Liberty CLOUDY    75  73  93 SE6       30.02F
Bronx Bot Gard   N/A     73  72  94 E2        30.05F
Wall St Helipt CLOUDY    75  73  94 CALM      30.04F
Teterboro      LGT RAIN  75  72  90 E6        30.02F FOG
$$

NYZ177-179-078>081-310400-
LONG ISLAND NEW YORK

CITY           SKY/WX    TMP DP  RH WIND       PRES   REMARKS
Farmingdale    CLOUDY    75  73  93 E3        30.05F
MacArthur/ISP  CLOUDY    75  74  96 SE3       30.05F FOG
Shirley        PTCLDY    74  73  97 CALM      30.06F
Riverhead      NOT AVBL
Westhampton    CLOUDY    73  71  93 CALM      30.08F FOG
Southhampton     N/A     73  72  94 S3        30.03S
Bridgehampton    N/A     72  72 100 CALM      30.06S
East Hampton   MOCLDY    73  71  94 CALM      30.06F
Montauk          N/A     74  71  91 VRB5      30.08F
$$

NYZ052-065-067-310400-
HUDSON VALLEY

CITY           SKY/WX    TMP DP  RH WIND       PRES   REMARKS
White Plains   LGT RAIN  73  72  96 E3        30.05F FOG
Newburgh       DRIZZLE   70  70 100 CALM      30.07F FOG
Montgomery     CLOUDY    69  68  96 NE3       30.06F
Poughkeepsie   CLOUDY    73  69  87 CALM      30.04F
Albany         LGT RAIN  69  65  86 S6        30.07S
$$

NJZ001-105-106-008-010-013-015-019>022-104-310400-
NEW JERSEY

CITY           SKY/WX    TMP DP  RH WIND       PRES   REMARKS
Newark/Liberty CLOUDY    75  73  93 SE6       30.02F
Teterboro      LGT RAIN  75  72  90 E6        30.02F FOG
Caldwell       LGT RAIN  73  72  96 CALM      30.04F FOG
Morristown     LGT RAIN  72  68  88 CALM      30.04S
Somerville     CLOUDY    73  71  93 CALM      30.01S FOG
Linden         FAIR      75  72  92 CALM      30.04F
Sussex         LGT RAIN  70  69  97 E3        30.05F
Abdover          N/A     69  68  96 NW3       30.05F
Trenton        CLOUDY    74  72  93 SE3       30.02S
Millville      CLOUDY    76  72  87 SE3       30.01F
Atlantic City  CLOUDY    77  71  82 SE8       30.00F
Wrightstown    CLOUDY    74  73  95 E3        29.99S
Toms River     CLOUDY    76  73  91 SE5       30.03F
Belmar         CLOUDY    75  74  96 SE7       30.04F
$$

PAZ047>061-062-071-310400-
EASTERN PENNSYLVANIA

CITY           SKY/WX    TMP DP  RH WIND       PRES   REMARKS
Philadelphia   LGT RAIN  76  73  91 SE5       30.01F
Allentown      CLOUDY    71  68  90 NE5       30.03S
Scranton       CLOUDY    70  68  93 NE5       30.03F
$$

CTZ002-004>006-009-010-012-RIZ004-006-007-MAZ004-011-015-310400-
SOUTHERN NEW ENGLAND
 IN CT

CITY           SKY/WX    TMP DP  RH WIND       PRES   REMARKS
Bradley INTL   CLOUDY    72  69  90 SE3       30.06F
Hartford       CLOUDY    74  71  91 CALM      30.05F
Danbury        LGT RAIN  72  70  93 CALM      30.08S
Wtrbury/Oxford   N/A     72  66  83 CALM      30.10F
Bridgeport     LGT RAIN  76  73  91 S3        30.05S
Meriden        CLOUDY    74  70  87 N3        30.06F
New Haven      MOCLDY    75  73  93 CALM      30.06F
Chester        CLOUDY    73  72  94 CALM      30.07F FOG
Groton         CLOUDY    74  71  91 CALM      30.06F
Wilimantic     MOCLDY    75  72  90 N3        30.07F

 IN RI

CITY           SKY/WX    TMP DP  RH WIND       PRES   REMARKS
Providence     LGT RAIN  76  69  79 SW7       30.07F
Block Island   CLOUDY    74  71  91 S7        30.08F
Westerly       CLOUDY    74  69  85 CALM      30.07F
 IN MA

CITY           SKY/WX    TMP DP  RH WIND       PRES   REMARKS
Boston         CLOUDY    71  69  93 E6        30.06S
Worchester     MOCLDY    69  66  90 W10       30.09F
Westfield      CLOUDY    69  67  93 CALM      30.06F
Provincetown   CLOUDY    72  70  93 S8        30.08F
Nantucket      FOG       65  65 100 SE5       30.09S VSB 1/4
$$

ANZ330-335-338-340-345-350-353-355-310400-
COASTAL MARINE OBSERVATIONS


STATION/POSITION TIME  SKY/WX   TEMP    WIND        PRES    VSBY  WAVE
                                AIR SEA DIR/SP/G                  HT/PER
                 (UTC)          (F)     (DEG/KT/KT) (MB)    (MI)  (FT/S)
NY HARB ENTRANCE 0150            74 73  130/  6/  6 1017.2          2/ 4
20S FIRE ISLAND  0150            76 76  140/  6/  8 1017.3          2/ 5
GREAT SOUTH BAY  0200            76 82  190/  4/  6   N/A
23 SSW MONTAUK P 0150            74 73  170/  6/  6 1018.7          2/ 8
15 E BARNEGAT LI 0200               78                N/A           2/ 4
HUDSON CANYON    0150            77 78              1017.7          2/ 9
KINGS POINT      0200               73              1017.4
EXECUTION ROCKS  0200            74      70/  4/  4   N/A
CENTRAL LI SOUND 0200            76 76  210/  4/  6   N/A           1
EASTERN LI SOUND 0200            71 68  190/  4/  6   N/A
ROBBINS REEF     0200                   120/  8/  9 1016.6
$$


>>>>>>>>>>>>>>>>>>>>>>>>>>>> KEY <<<<<<<<<<<<<<<<<<<<<<<<<<<
>                                                          <
>     SKY/WX - Sky Condition/Present Weather               <
>     TMP    - Temperature in Fahrenheit                   <
>     DP     - Dew Point in Fahrenheit                     <
>     RH     - Relative Humidity in Percent                <
>     WIND   - Direction (from) and Speed in MPH           <
>     PRES   - Mean Sea Level Pressure (inches of Hg)      <
>     WCI    - Wind Chill Index                            <
>     VSB    - VISIBILITY IN MILES                         <
>     HX     - HEAT INDEX                                  <
>     TC     - TEMPERATURE IN CELSIUS                      <
>     VRB    - VARIABLE WIND DIRECTION                     <
>                                                          <
>>>>>>>>>>>>>>>>>>>>>>>>>>>> KEY <<<<<<<<<<<<<<<<<<<<<<<<<<<




USA.gov is the U.S. government's official web portal to all federal, state and local government web resources and services.